Location: Albany
(35.0170°S, 117.8920°E)
Time: 02:33:05
(UTC+08:00)

Vanguard 1 - Pass Details

Date: 30 January 2021
Orbit: 649 x 3833 km, 34.2° (Epoch: 25 February)

Event Time Altitude Azimuth Distance (km) Brightness Sun altitude
Rises 06:05:25 0° 271° (W) 2,972 11.9 6.8°
Reaches altitude 10° 06:08:12 10° 291° (WNW) 2,124 11.2 7.4°
Maximum altitude 06:11:26 18° 335° (NNW) 1,802 11.1 8.0°
Drops below altitude 10° 06:15:19 10° 18° (NNE) 2,630 12.3 8.8°
Sets 06:19:20 0° 35° (NE) 4,019 13.5 9.6°
